#timestamp,LO_Frequency,Hit,StdDev 
1692439215.2,286047004.4,N
1692439235.0,286047001.4,N
1692439235.9,286047001.4,N
1692439255.8,286047002.1,N
1692439275.6,286047001.6,N
1692439295.4,286047002.8,N
1692439315.3,286046999.8,N
1692439335.1,286047001.2,N
1692439355.8,286047000.0,N
1692439375.7,286046998.6,N
1692439395.5,286046998.7,N
1692439415.4,286046998.6,N
1692439435.2,286046998.5,N
1692439455.0,286047001.2,N
1692439455.9,286047001.2,N
1692439475.8,286046998.6,N
1692439495.6,286047000.7,N
1692439515.4,286047001.0,N
1692439535.5,286047000.4,N
1692439555.3,286046998.4,N
1692439575.2,286046998.6,N
1692439595.0,286047000.9,N
1692439595.9,286047000.9,N
1692439615.7,286046998.4,N
1692439635.6,286047001.2,N
1692439655.4,286046998.4,N
1692439675.3,286046998.4,N
1692439695.1,286047001.1,N
1692439696.0,286047001.1,N
1692439715.8,286046998.1,N
1692439735.7,286047001.2,N
1692439755.5,286046998.2,N
1692439775.3,286046998.3,N
1692439795.2,286046998.7,N
1692439815.0,286046998.5,N
1692439815.9,286046998.5,N
1692439835.8,286046998.7,N
1692439855.6,286046999.1,N
1692439875.4,286046997.1,N
1692439895.3,286046997.4,N
1692439915.1,286046997.2,N
1692439935.8,286046996.8,N
1692439955.7,286046997.8,N
1692439975.5,286046995.0,Y
1692439995.4,286046996.6,P
1692440015.2,286046997.0,N
1692440035.0,286046996.5,P
1692440035.9,286046996.5,Y
1692440055.8,286047000.6,P
1692440075.6,286047000.5,N
1692440095.5,286047000.6,N
1692440115.3,286046999.7,N
1692440135.1,286047002.4,N
1692440155.9,286047002.7,N
1692440175.7,286047000.5,N
1692440195.5,286047001.1,N
1692440215.4,286046998.2,N
1692440235.2,286046998.8,N
1692440255.0,286046999.0,N
1692440256.0,286046999.0,N
1692440275.8,286046996.6,N
1692440295.6,286046997.0,N
1692440315.5,286046999.1,N
1692440335.3,286046999.4,N
1692440355.1,286046998.7,N
1692440375.9,286047000.6,N
1692440395.7,286047000.9,N
1692440415.6,286047000.6,N
1692440435.4,286046998.3,N
1692440455.2,286046999.2,N
1692440475.1,286046999.1,N
1692440476.0,286046999.1,N
1692440495.8,286046997.0,N
1692440515.6,286046996.7,N
1692440535.5,286046997.3,N
1692440555.3,286046995.3,N
1692440575.2,286046995.4,N
1692440595.9,286046994.9,N
1692440615.7,286046998.0,N
1692440635.6,286046997.8,N
1692440655.4,286046997.0,N
1692440675.2,286046997.3,N
1692440695.1,286046994.9,N
1692440696.0,286046994.9,N
1692440715.8,286046995.3,N
1692440735.7,286046995.3,N
1692440755.5,286046997.1,N
1692440775.3,286046997.1,N
1692440795.2,286046997.1,N
1692440815.0,286046999.4,N
1692440815.9,286046999.4,N
1692440835.8,286046997.0,N
1692440855.6,286046999.3,N
1692440875.4,286046998.7,N
1692440895.3,286046996.5,N
1692440915.1,286046998.8,N
1692440935.8,286046998.4,N
1692440955.7,286046998.8,N
1692440975.5,286046996.6,N
1692440995.4,286046997.3,N
1692441015.2,286046996.6,N
1692441035.0,286046998.9,N
1692441035.9,286046998.9,N
1692441055.8,286046999.3,N
1692441075.6,286046998.8,N
1692441095.4,286046998.9,N
1692441115.3,286046999.3,N
1692441135.1,286046999.0,N
1692441155.9,286047000.7,N
1692441175.7,286046998.6,N
1692441195.5,286047000.5,N
1692441215.4,286047000.6,N
1692441235.2,286046998.5,N
1692441255.0,286046999.4,N
1692441255.9,286046999.4,N
1692441275.8,286046998.8,N
1692441295.6,286047001.1,N
1692441315.5,286047000.6,N
1692441335.3,286047000.7,N
1692441355.1,286047000.2,N
1692441375.9,286047000.2,N
1692441395.7,286047000.6,N
1692441415.6,286047000.6,N
1692441435.4,286047000.8,N
1692441455.2,286047000.0,N
1692441475.1,286047000.3,N
1692441476.0,286047000.3,N
1692441495.8,286047001.0,N
1692441515.6,286047000.6,N
1692441535.5,286046998.2,N
1692441555.3,286047000.7,N
1692441575.1,286047000.6,N
1692441595.9,286047000.9,N
1692441615.7,286047000.5,N
1692441635.6,286047000.6,N
1692441655.4,286047000.6,N
1692441675.2,286046998.1,N
1692441695.1,286047000.3,N
1692441696.0,286047000.3,N
1692441715.8,286047000.3,N
1692441735.7,286047000.0,N
1692441755.5,286047000.0,N
1692441775.3,286046999.8,N
1692441795.2,286047002.8,Y
1692441815.0,286047000.5,P
1692441815.9,286047000.5,N
1692441835.8,286047000.7,P
1692441855.6,286047001.2,Y
1692441875.4,286047001.0,P
1692441895.3,286047000.7,N
1692441915.1,286047000.0,N
1692441935.8,286047000.9,N
1692441955.7,286047000.6,N
1692441975.5,286047002.8,Y
1692441995.4,286047000.5,P
1692442015.2,286047000.0,N
1692442035.0,286047001.0,P
1692442035.9,286047001.0,N
1692442055.8,286047001.2,Y
1692442075.6,286047001.1,P
1692442095.4,286046998.1,P
1692442115.3,286047001.1,N
1692442135.1,286047000.8,N
1692442155.9,286047000.2,N
1692442175.7,286047000.0,N
1692442195.5,286047000.0,N
1692442215.4,286046999.7,N
1692442235.2,286047000.4,N
1692442255.1,286047000.3,N
1692442256.0,286047000.3,N
1692442275.8,286047000.5,N
1692442295.6,286047000.7,N
1692442315.5,286046998.1,N
1692442335.3,286047001.1,N
1692442355.1,286047000.6,N
1692442375.9,286047000.5,N
1692442395.7,286047000.2,N
1692442415.6,286047000.5,N
1692442435.4,286047001.0,N
1692442455.2,286047000.5,N
1692442475.1,286047000.0,N
1692442476.0,286047000.0,N
1692442495.8,286047000.7,N
1692442515.7,286046998.3,N
1692442535.5,286047001.2,N
1692442555.3,286047001.0,N
1692442575.2,286047000.9,N
1692442595.9,286047000.2,N
1692442615.7,286047001.0,N
1692442635.6,286046999.9,N
1692442655.4,286047000.2,N
1692442675.3,286046999.9,N
1692442695.1,286046999.9,N
1692442696.0,286046999.9,N
1692442715.8,286046999.7,N
1692442735.7,286047002.8,Y
1692442755.5,286047000.4,P
1692442775.3,286047000.0,N
1692442795.2,286047000.0,N
